Wind_Speed
13 13 13 13 13 13 14 14 14 14 14 14 14 14 13 13 13 13 13 14 14 14 14 15 15 16 16 16 16 16 16 15 15 15 14 16 17 17 17 17 17 17 17 17 17 17 16 16 15 15 15 15 15 15 15 15 15 17 18 18 18 18 17 15 14 17 18 17 16 17 18 21 20 19 22 24 23 21 21 20 20 22 21 19 18 18 19 19
15 15 15 15 15 15 15 15 16 16 16 16 16 16 16 16 15 15 15 15 15 15 15 16 16 16 17 18 18 19 19 18 17 17 17 17 18 18 18 18 19 19 19 19 19 19 19 18 17 17 17 16 17 17 17 17 17 18 19 21 20 17 18 16 15 17 19 20 20 19 20 22 21 21 24 25 25 24 24 21 20 22 20 19 20 20 20 20
17 17 17 17 17 17 17 17 17 17 17 18 18 18 18 18 18 18 17 17 17 17 17 17 17 17 17 18 19 20 20 19 18 19 19 19 19 19 19 19 19 20 20 20 20 20 20 20 20 19 19 18 19 19 19 18 19 21 22 23 20 18 20 18 16 17 19 21 23 22 22 23 22 24 26 27 27 26 24 20 20 21 19 19 21 23 22 22
18 19 19 19 19 19 19 19 19 19 19 19 19 19 19 19 19 19 20 20 20 19 19 19 19 19 18 19 19 20 20 20 19 19 20 19 19 19 20 19 19 20 20 20 21 21 21 21 21 21 21 21 21 20 20 19 20 24 24 24 21 20 22 19 16 18 20 22 25 24 25 25 23 25 27 27 29 27 21 18 20 22 21 19 20 22 22 22
20 20 20 20 20 20 20 20 20 20 21 21 21 21 21 21 21 21 21 21 21 21 21 21 21 21 21 21 21 21 21 20 18 17 17 17 17 17 18 18 18 18 18 19 19 19 20 21 21 22 22 22 23 23 22 20 22 26 27 25 22 22 25 21 18 20 22 24 26 26 27 27 26 28 28 29 30 27 21 19 21 22 21 20 20 21 21 20
21 21 21 21 21 21 21 21 21 21 22 22 22 22 22 22 22 22 22 22 23 23 23 23 23 23 23 23 23 23 23 19 16 18 18 18 18 18 18 18 18 19 19 20 20 20 20 21 21 21 23 24 25 25 24 23 24 27 29 26 24 24 26 24 22 23 24 25 26 27 28 29 29 30 30 32 31 26 22 23 23 21 20 21 22 22 22 21
21 22 22 21 22 22 22 22 22 22 23 23 23 24 24 24 24 24 23 23 24 24 24 24 24 25 24 25 25 25 26 21 18 22 22 21 22 21 21 21 21 23 23 23 22 22 22 23 23 22 24 26 26 27 26 25 26 29 30 28 26 27 28 26 26 27 26 27 28 28 29 29 30 32 36 37 31 25 24 24 23 20 20 23 22 22 24 22
22 23 23 23 23 23 23 23 23 24 24 25 25 25 25 26 25 25 25 25 25 25 25 25 25 25 25 26 26 28 29 22 19 22 23 23 23 22 22 22 23 24 24 24 23 23 23 23 22 23 25 26 27 28 27 27 28 30 30 29 28 29 29 28 29 30 29 30 30 31 31 29 30 34 41 42 32 26 25 23 22 22 23 24 23 23 24 23
23 24 24 24 24 24 24 24 24 25 25 26 26 26 27 27 27 27 26 26 26 26 26 26 27 26 27 27 28 31 27 19 19 22 23 23 22 22 22 22 23 23 24 24 24 24 23 22 22 23 24 26 28 29 29 29 30 31 30 30 31 32 32 31 33 32 32 32 32 34 33 30 31 35 44 43 31 27 26 24 25 26 26 26 26 26 26 25
25 25 25 25 25 25 25 25 25 25 25 26 26 27 27 27 28 28 28 28 27 28 28 28 28 28 29 28 31 33 24 18 21 23 24 24 23 23 23 24 25 25 25 25 25 26 25 24 24 24 25 26 28 29 29 30 31 32 32 32 32 33 34 34 35 34 34 34 35 37 36 33 33 37 44 40 31 29 28 28 28 28 28 28 29 28 28 28
26 26 26 26 26 26 26 26 26 26 26 26 26 27 27 28 28 28 28 28 28 28 29 29 29 29 30 30 33 32 23 22 24 24 25 25 25 25 26 27 28 28 28 28 28 28 28 27 27 27 26 27 28 29 30 31 32 32 33 34 33 34 35 36 37 36 36 36 35 38 38 35 34 39 44 38 33 31 31 31 30 30 30 30 31 31 31 31
28 28 28 28 28 28 28 28 28 28 28 28 28 28 29 29 29 29 28 29 29 29 29 30 30 30 31 32 32 29 26 26 26 26 26 25 24 26 27 28 29 30 31 30 31 31 30 30 30 29 28 29 30 30 31 32 33 33 34 36 36 37 37 36 37 36 36 37 36 37 39 38 37 39 40 36 33 33 33 33 32 32 32 32 33 33 34 33
30 30 30 29 30 30 30 30 29 29 29 29 29 29 30 30 30 30 30 30 30 30 30 31 31 31 33 33 29 28 28 27 27 26 25 24 25 27 28 29 29 30 31 31 32 31 31 31 31 30 29 30 31 31 33 34 35 35 35 37 39 40 40 36 35 36 36 37 37 36 39 41 38 37 37 35 35 35 36 36 35 36 35 34 34 35 35 35
29 29 29 29 29 29 30 29 29 29 29 29 29 29 30 30 31 31 31 31 31 32 32 32 33 32 35 33 29 29 30 28 28 26 25 25 26 28 29 29 30 31 32 32 32 32 32 32 31 30 29 30 30 32 34 35 35 35 36 39 39 40 40 36 34 36 38 37 38 36 40 45 42 37 36 36 38 38 39 38 37 38 38 37 37 37 38 37
28 28 28 28 28 28 28 28 28 28 28 29 29 29 29 29 30 31 31 31 31 31 31 32 33 33 37 34 30 31 31 28 27 25 24 24 24 26 28 29 30 31 31 31 31 31 31 31 30 28 27 27 28 31 35 36 35 34 36 39 39 39 40 37 32 34 38 38 39 38 42 48 45 39 36 37 40 41 42 41 40 41 41 40 40 39 39 38
28 28 28 28 28 28 28 28 28 28 28 28 28 29 29 28 29 29 30 31 31 31 31 31 31 32 36 34 31 31 29 28 28 26 25 25 26 27 28 29 30 30 31 32 32 32 32 32 30 27 26 25 27 32 36 36 35 35 37 39 40 40 40 37 33 33 38 41 42 41 45 48 46 41 38 37 40 43 44 44 43 43 43 42 42 41 41 39
28 28 28 28 28 28 28 28 28 28 28 29 29 29 29 28 28 28 29 29 30 30 30 31 31 33 35 33 31 29 28 28 27 26 25 25 26 27 28 29 28 28 29 29 30 31 32 32 30 28 26 24 27 33 33 31 35 37 37 39 40 38 37 38 37 34 36 42 44 44 48 51 47 43 41 39 40 43 45 45 44 44 44 43 43 43 41 40
27 27 27 27 28 28 28 28 28 28 28 29 30 29 29 29 29 29 29 30 31 31 32 32 31 33 33 29 27 26 25 26 26 26 25 26 28 29 30 31 30 29 29 29 29 30 30 31 30 28 25 23 27 35 35 32 36 37 37 39 39 38 37 38 40 37 37 44 46 46 50 52 50 46 44 40 38 41 44 44 44 43 42 42 42 42 40 39
26 27 27 27 28 28 28 28 29 29 29 29 30 30 31 31 31 31 31 31 32 31 33 33 31 33 32 28 27 27 27 27 28 28 28 28 30 32 33 33 33 33 33 33 34 34 33 34 33 31 30 30 33 38 40 38 38 38 38 39 40 41 41 40 42 39 37 44 48 47 52 54 51 48 44 41 38 40 42 41 42 42 41 40 40 40 39 39
27 27 27 27 28 28 28 29 29 30 29 29 30 30 31 32 33 33 33 33 33 33 34 35 35 36 35 33 31 29 28 28 28 29 29 30 30 32 34 35 37 37 38 38 38 37 37 39 40 38 36 36 36 38 39 38 37 38 39 39 40 42 43 41 40 37 36 46 53 50 52 54 51 48 46 43 41 39 39 41 41 40 39 38 38 38 38 36
28 28 28 29 28 29 29 29 29 30 29 29 29 29 30 31 33 34 37 37 35 35 37 36 37 40 38 35 32 31 30 30 30 30 31 31 31 33 35 37 39 41 40 39 39 38 39 43 44 40 37 36 35 35 36 37 37 38 38 39 41 42 44 43 39 38 37 46 54 49 52 57 52 49 46 43 44 43 39 38 39 38 36 35 36 35 34 32
29 29 29 29 29 29 30 30 30 29 29 29 28 29 30 30 31 34 39 43 41 38 38 39 39 42 40 35 34 33 33 34 33 32 31 31 32 34 37 39 40 42 40 38 38 40 43 47 44 37 35 34 33 33 34 36 36 36 36 38 42 42 43 45 41 38 38 43 51 50 55 61 54 50 49 46 47 42 35 33 36 37 36 35 34 32 29 27
28 29 29 29 28 29 29 30 30 29 29 29 28 29 29 30 32 34 38 45 46 41 39 40 41 43 39 35 34 33 36 37 34 33 31 32 34 34 37 40 41 41 40 39 40 42 45 44 39 33 32 32 32 32 32 33 35 37 37 39 44 43 42 47 44 40 40 43 49 50 57 65 57 50 47 40 38 35 34 36 35 35 35 33 28 21 18 16
27 27 27 27 27 27 28 28 28 29 28 28 28 28 29 31 32 35 38 44 50 47 41 39 41 42 38 34 34 34 37 38 35 34 32 34 36 35 39 41 41 43 42 41 41 45 46 42 37 35 36 37 36 36 34 34 38 41 41 41 44 42 40 45 45 42 42 43 43 44 53 61 45 29 32 33 37 42 37 34 32 32 33 27 15 8 7 10
26 26 26 25 25 26 26 27 27 28 28 27 27 28 29 30 31 34 36 41 50 50 41 37 38 38 34 32 32 33 36 37 36 35 34 35 36 37 40 40 41 43 42 39 40 45 46 39 36 37 38 38 38 39 35 34 39 43 42 39 39 39 39 41 39 38 39 33 31 28 30 37 27 17 34 47 44 38 30 29 34 33 24 11 5 6 8 12
25 26 26 25 25 26 26 27 27 28 28 28 28 29 30 30 30 32 34 39 47 46 34 25 24 25 24 23 23 25 31 33 32 33 34 35 35 37 40 41 42 42 40 37 36 43 43 36 33 35 35 34 35 36 32 30 37 43 39 32 31 33 35 35 30 29 28 23 25 23 13 25 42 41 43 45 34 27 30 33 34 25 8 6 5 11 13 12
26 25 26 26 27 27 28 28 28 29 30 29 29 30 30 29 28 30 30 28 29 28 18 10 8 11 13 13 13 16 20 21 20 22 26 28 33 37 39 41 41 40 38 35 33 38 37 31 28 29 28 29 30 30 27 25 32 39 35 28 28 29 30 30 27 25 28 30 32 27 14 20 46 50 35 31 26 24 30 31 25 10 7 6 10 15 10 9
25 26 26 27 28 29 28 28 28 29 29 29 29 28 28 26 26 27 20 10 11 14 10 6 5 6 9 10 11 14 16 16 15 15 17 18 24 29 33 37 38 37 37 35 37 39 35 31 30 30 29 28 29 28 27 25 29 34 32 28 27 27 28 28 28 27 28 31 25 15 8 9 35 53 37 27 24 16 18 19 9 7 12 5 19 13 5 7
24 25 26 27 29 29 27 27 27 27 28 28 26 25 25 24 25 23 12 6 11 13 10 9 9 10 12 13 14 16 18 19 19 17 16 15 16 20 24 27 29 32 34 35 39 39 34 33 33 33 33 31 30 29 29 28 28 30 29 28 26 25 27 26 28 28 22 22 15 9 8 6 30 51 30 13 12 6 8 4 11 16 3 15 17 9 10 13
26 26 25 26 28 26 25 25 24 26 27 25 24 25 24 23 24 18 8 11 15 13 13 14 10 10 13 14 16 19 20 21 21 20 18 18 19 19 20 21 23 27 29 31 35 35 32 32 33 34 31 30 30 30 30 30 29 29 27 29 28 26 28 26 26 24 12 14 19 18 17 12 17 26 11 3 3 3 5 5 20 14 9 15 8 9 19 25
27 25 24 25 25 24 24 21 20 23 24 23 24 25 24 23 22 12 7 15 18 14 16 16 11 11 14 17 18 19 21 21 21 20 20 21 22 21 21 20 19 22 25 28 30 29 29 30 32 32 29 28 28 28 30 30 30 29 27 27 25 20 18 16 16 12 4 9 17 16 16 17 19 13 3 3 2 5 5 2 12 11 16 14 7 13 25 29
25 24 25 26 26 26 25 22 20 21 22 23 23 23 23 19 18 21 19 17 12 6 7 7 6 8 11 15 17 17 19 20 20 22 21 22 22 22 21 19 17 17 19 23 27 29 33 35 33 33 33 31 28 28 30 30 30 30 29 27 17 8 7 5 5 4 6 13 16 10 7 19 36 38 26 21 19 18 18 15 16 20 20 14 11 20 28 23
26 27 27 28 29 29 28 26 24 24 24 25 23 23 22 15 15 25 27 20 11 6 8 8 8 8 8 12 14 15 16 17 18 18 19 21 22 22 21 19 20 20 21 25 29 32 34 38 37 34 33 30 27 28 29 30 32 31 31 27 16 5 1 3 4 2 7 15 18 15 12 17 34 40 36 33 28 23 20 21 25 27 27 24 24 27 24 13
30 30 29 30 31 31 30 30 29 29 27 26 24 23 22 21 23 28 29 28 25 23 24 24 23 21 20 21 19 16 17 17 17 19 20 22 24 25 25 24 24 25 25 26 27 25 22 29 35 30 26 26 26 26 27 29 30 31 31 27 23 19 10 5 5 4 5 7 8 12 11 11 21 26 29 33 34 33 35 39 42 42 40 34 29 22 10 5
33 33 33 33 33 32 33 33 33 32 29 27 26 24 29 33 31 31 32 32 31 30 30 29 30 32 32 32 30 27 27 25 23 25 26 25 27 29 30 30 31 30 26 22 21 21 19 27 34 27 26 30 30 29 29 26 26 29 29 25 29 34 28 18 16 17 10 4 5 12 14 25 39 46 49 50 51 51 47 44 40 35 29 21 17 11 5 7
38 38 37 37 35 34 35 36 37 36 32 29 27 32 42 42 36 33 32 29 25 24 25 26 29 32 32 32 31 30 29 27 25 24 25 26 28 32 33 34 34 32 28 25 25 22 21 30 35 30 30 32 29 28 28 26 24 24 24 27 32 35 32 24 19 21 14 7 14 19 23 37 47 52 54 46 42 38 31 28 22 16 13 10 13 13 11 12
43 42 42 41 40 39 39 40 40 38 34 29 31 41 48 47 44 43 41 38 36 33 32 31 32 31 26 25 26 25 23 24 24 24 26 28 26 28 31 30 30 30 29 29 32 30 27 34 42 39 35 34 31 28 28 30 30 27 25 27 28 25 27 22 10 8 8 6 14 22 30 36 32 34 43 41 40 39 33 29 25 20 19 17 17 19 18 17
45 46 45 44 43 43 42 40 39 38 33 31 38 47 50 49 49 47 44 44 43 39 36 34 33 32 29 29 33 31 26 26 26 26 28 28 25 28 31 30 29 31 29 27 31 32 30 31 38 41 34 28 29 28 28 31 32 33 32 29 23 16 16 18 10 4 6 6 7 16 27 33 33 40 49 47 47 48 42 34 29 25 25 24 22 20 19 19
46 46 47 47 44 41 38 36 35 34 32 35 42 48 50 52 51 48 47 47 45 41 39 39 37 35 35 37 37 34 31 31 29 28 27 26 25 28 30 28 29 30 30 29 29 33 33 25 27 38 31 19 21 23 23 24 25 29 32 31 29 23 17 17 15 9 8 7 7 11 15 21 35 49 51 42 38 38 37 35 33 31 26 21 20 19 18 19
42 42 43 43 41 38 34 31 31 32 34 40 46 48 50 50 48 47 47 45 44 42 41 41 39 37 39 41 39 37 35 33 31 31 29 28 29 30 29 29 32 33 32 31 28 30 32 24 24 37 34 22 22 25 22 24 24 26 28 29 31 32 28 22 20 20 17 8 5 8 8 18 37 49 48 41 35 35 38 39 39 36 28 19 18 20 23 25
37 37 38 37 35 32 29 28 30 34 38 42 45 47 48 47 46 47 46 44 43 42 41 42 41 40 41 41 40 39 36 35 36 35 34 35 35 33 31 29 30 29 28 28 27 26 27 25 25 33 36 35 37 37 35 36 36 33 30 30 30 31 29 19 12 21 28 18 13 11 8 19 40 50 51 50 47 46 47 45 44 42 36 31 30 33 38 38
33 34 34 32 30 28 26 27 29 32 36 39 41 42 43 43 44 45 45 45 43 41 41 42 42 43 43 42 42 41 38 40 42 40 39 41 39 36 34 32 32 32 31 33 34 35 33 26 23 29 36 42 43 41 38 38 39 36 31 31 31 29 30 23 13 19 27 23 24 22 13 21 41 49 50 49 48 47 46 45 45 43 40 40 41 45 49 51
33 32 31 30 29 27 24 27 28 30 34 36 36 37 38 40 41 42 43 43 40 38 39 40 40 41 42 42 41 41 41 42 43 44 43 43 42 41 38 36 35 35 35 35 33 33 31 22 20 25 30 37 41 40 36 34 35 36 35 36 37 36 38 37 31 29 27 22 23 18 9 16 31 41 44 45 46 49 49 48 45 40 41 45 49 53 56 57
31 30 29 29 28 26 26 29 31 32 33 34 34 35 35 37 38 39 40 40 37 37 38 39 39 39 40 41 41 42 42 39 38 40 39 36 36 36 33 32 32 31 32 31 27 26 24 20 18 16 14 20 27 28 27 27 27 30 31 32 35 39 41 41 40 35 25 25 29 19 11 20 30 37 44 48 50 53 51 49 47 46 49 52 53 54 56 57
28 28 27 27 27 27 29 32 33 32 32 32 34 34 35 36 38 39 39 39 39 38 39 40 40 39 39 38 39 41 41 37 36 37 37 35 33 32 31 31 32 32 32 33 33 33 33 33 30 20 9 9 14 18 22 24 20 20 22 24 28 32 32 33 37 31 19 25 35 26 22 35 41 41 45 47 48 49 48 48 51 53 55 55 54 53 53 54
27 28 27 26 25 27 30 31 32 33 34 35 36 35 36 38 40 40 39 39 39 38 40 42 41 40 40 41 42 43 43 42 39 38 37 34 31 31 31 31 32 32 32 34 35 35 36 38 38 35 29 28 31 35 38 36 30 28 29 33 36 37 37 35 34 32 30 33 38 36 37 45 46 45 45 43 41 45 48 50 52 53 53 54 55 55 54 53
27 28 27 26 24 24 27 28 29 32 34 35 36 37 38 40 40 40 39 40 41 41 41 42 41 40 40 40 40 39 39 38 36 35 35 34 34 35 33 33 33 33 34 35 35 35 34 34 37 40 38 38 41 43 44 44 42 39 37 37 38 38 40 40 37 41 43 35 29 37 43 43 42 42 41 40 39 40 43 45 47 49 51 53 55 57 57 56
27 28 27 27 26 26 26 27 29 31 32 33 37 38 39 41 41 39 38 37 37 36 34 34 35 35 35 34 34 33 34 35 35 36 36 36 36 36 35 34 34 35 35 37 37 38 37 38 42 42 35 33 36 38 39 41 39 35 32 31 32 33 34 38 39 42 42 33 30 39 44 44 46 45 45 47 46 45 47 49 50 51 52 54 57 59 61 61
29 29 28 28 31 32 31 31 32 32 32 33 36 38 38 40 41 40 38 37 38 37 36 36 37 37 38 38 38 39 39 37 36 36 36 36 34 34 36 35 34 34 33 32 31 29 28 29 31 31 29 28 30 31 33 35 35 36 36 34 34 35 38 42 42 41 42 43 46 48 47 46 46 44 46 48 46 46 49 49 49 49 51 55 57 58 60 62
31 31 30 30 32 32 33 33 33 35 35 34 36 38 37 38 39 39 38 37 37 37 38 39 41 42 43 44 43 45 44 42 41 39 39 39 36 34 34 33 32 31 29 28 26 23 23 24 25 29 32 34 38 39 40 41 40 39 39 39 42 47 50 50 49 48 49 50 49 48 46 43 39 38 40 40 42 45 47 48 49 50 51 53 53 53 54 56
31 32 32 32 32 32 33 34 33 35 36 36 38 39 37 38 39 39 39 37 34 32 31 31 32 32 32 33 35 35 34 35 36 35 33 34 33 30 30 30 31 31 31 32 33 33 34 35 37 38 35 39 49 51 47 44 39 35 39 46 52 55 54 51 50 49 47 45 45 45 43 40 38 39 40 39 39 41 41 43 46 46 45 46 45 45 47 48
31 32 33 33 34 33 34 35 34 36 38 37 38 38 37 38 39 38 38 36 35 36 35 35 34 33 32 32 33 33 33 33 35 35 34 35 35 36 37 37 38 40 42 43 44 45 44 39 38 36 29 35 47 47 41 35 26 27 41 49 48 47 45 43 43 42 40 40 40 39 39 39 40 42 42 41 39 37 35 35 37 38 38 37 37 39 41 44
Wind_Direction
272 273 274 274 275 276 278 279 280 281 282 282 282 281 280 278 276 276 274 274 273 273 272 272 272 272 272 273 273 274 275 276 277 279 279 277 280 283 284 285 286 286 287 287 288 289 290 290 290 290 290 291 291 292 291 291 293 292 289 288 288 291 297 303 302 296 293 292 289 291 296 297 301 302 298 295 294 297 297 300 305 304 307 308 302 296 291 286
274 275 276 276 276 277 277 278 279 279 280 280 282 283 284 284 284 284 283 281 281 279 278 276 276 274 274 273 272 273 273 275 276 277 277 278 280 282 283 283 283 285 285 284 285 285 287 286 286 286 287 288 289 289 289 291 291 288 287 284 286 293 297 298 297 294 294 294 291 293 295 296 303 304 297 294 296 298 298 306 310 305 308 308 301 294 288 284
274 275 275 276 276 276 276 276 277 277 277 278 279 280 281 282 284 285 285 286 285 285 284 282 281 280 279 278 277 276 275 275 276 277 277 277 279 281 282 282 282 282 282 283 282 282 284 283 283 283 284 286 287 288 288 290 289 287 284 283 289 295 291 291 295 293 291 291 291 293 293 295 302 300 294 295 297 296 300 312 310 305 310 307 299 292 287 285
272 273 273 273 274 274 274 275 276 276 276 276 277 278 278 280 281 282 284 285 285 286 285 285 284 284 283 282 282 281 280 281 280 279 280 280 280 280 281 281 280 280 280 281 282 282 282 281 280 281 282 284 285 286 288 290 288 284 281 284 291 292 287 289 293 287 285 286 288 291 292 295 298 293 292 295 296 295 303 313 308 308 311 304 296 293 292 291
272 272 272 272 273 274 274 275 276 277 277 277 277 277 278 278 278 280 281 281 283 283 284 285 285 285 284 284 284 284 285 287 286 283 284 285 284 283 282 282 282 282 282 283 284 285 283 281 281 281 282 283 284 285 288 289 286 283 282 285 289 290 288 290 291 284 282 282 284 288 291 294 294 291 292 292 291 294 304 309 306 308 309 303 299 299 300 298
272 273 273 273 274 274 275 276 276 277 278 279 279 279 279 278 279 279 280 281 281 281 282 282 283 283 284 283 283 284 283 283 288 287 285 284 283 282 282 283 284 284 284 284 284 283 283 282 281 282 282 282 283 286 288 288 285 283 284 286 288 289 287 289 291 285 284 284 285 289 289 291 292 292 292 288 287 294 303 305 304 304 303 301 303 305 305 303
273 273 274 274 275 275 276 277 278 278 279 280 281 281 282 281 282 281 282 282 282 283 282 283 283 283 283 282 281 280 278 281 288 286 284 283 282 281 281 280 280 281 283 283 282 280 279 279 281 283 282 283 285 286 287 285 285 284 285 289 290 287 286 289 290 287 288 288 290 291 289 290 292 293 289 284 286 293 300 303 303 301 298 297 301 305 306 305
273 274 274 275 275 276 276 277 278 279 280 281 282 283 283 284 284 284 284 284 285 285 284 285 284 284 284 282 281 278 276 284 289 283 283 284 283 284 284 282 280 280 281 283 283 281 280 281 282 281 280 282 283 284 285 285 285 284 287 289 288 285 286 288 287 287 290 290 291 291 289 291 292 292 286 282 287 296 300 300 299 296 293 293 296 300 301 300
272 273 274 274 275 276 276 277 277 278 279 280 281 282 283 283 283 284 285 285 286 285 286 285 284 285 283 282 282 277 277 288 286 280 282 283 285 286 285 284 281 280 281 281 281 281 282 283 281 279 279 280 282 284 285 285 285 286 288 287 285 285 286 287 285 287 289 289 290 289 289 290 291 290 282 280 291 300 300 296 293 292 289 290 292 293 295 293
271 272 273 273 274 275 275 276 276 277 278 279 280 281 281 281 282 283 284 285 286 286 286 286 286 285 283 283 280 275 279 288 281 278 280 282 284 285 284 283 281 280 279 278 279 280 281 280 279 278 278 280 282 283 284 284 285 287 286 285 285 286 287 286 285 287 288 289 289 288 289 288 288 285 278 282 298 302 297 292 290 289 287 288 288 289 291 289
270 271 272 273 274 274 275 275 275 276 277 278 279 279 280 280 281 281 283 284 285 285 286 286 287 286 285 282 276 275 283 284 278 278 279 280 283 282 281 280 279 279 278 278 278 278 278 277 276 276 277 279 281 282 283 284 285 285 285 285 285 285 285 286 286 289 290 290 291 291 290 287 285 281 278 287 300 298 294 290 288 287 286 286 285 285 285 284
269 270 271 272 273 274 274 275 275 276 277 278 278 278 279 279 280 280 281 282 282 283 283 284 284 284 284 279 275 280 286 281 279 279 279 282 282 279 277 276 276 277 276 277 277 277 277 276 275 274 275 277 279 281 282 283 283 284 285 286 286 285 284 284 287 290 292 293 294 295 292 287 284 281 282 291 298 296 293 289 287 285 284 283 282 281 280 281
269 270 271 272 273 274 274 275 276 277 278 278 278 279 279 279 280 280 280 280 280 280 280 281 281 281 281 277 278 283 283 281 281 282 284 286 281 277 275 274 275 275 275 275 275 276 275 274 274 273 273 274 277 279 280 280 281 282 283 284 286 285 284 286 290 294 296 296 297 297 291 288 288 285 287 294 296 295 292 289 287 285 283 282 280 279 278 278
270 271 271 272 273 274 275 276 277 279 280 280 280 281 281 281 281 281 281 280 279 279 279 279 278 279 277 277 279 281 280 281 283 287 289 286 280 277 276 275 275 274 273 273 273 274 273 273 272 271 271 273 276 278 277 277 277 280 281 281 282 282 283 290 296 298 298 296 297 295 289 289 293 291 290 295 297 295 292 291 288 284 283 281 280 278 277 276
271 272 273 273 274 275 276 277 278 279 280 280 281 282 283 283 283 283 283 282 281 280 280 279 279 279 278 277 278 278 280 283 285 288 286 282 279 278 276 275 274 273 273 273 273 273 273 272 270 270 271 272 275 276 275 274 274 276 276 277 279 280 286 294 294 292 293 292 293 292 289 291 294 294 294 296 295 295 294 292 288 284 283 282 281 279 278 276
273 273 274 274 275 276 277 278 279 279 280 281 282 282 283 284 284 284 283 284 283 282 282 280 280 279 278 280 279 279 282 284 283 281 279 279 278 276 275 274 273 273 272 273 272 272 272 271 270 270 270 271 274 275 273 271 271 272 272 274 279 282 289 295 289 286 289 291 292 291 289 291 293 295 296 294 294 295 293 290 288 286 285 283 282 282 281 279
275 275 276 276 277 278 278 279 280 280 281 282 282 283 284 284 284 284 284 284 283 283 282 280 281 279 278 281 282 282 283 282 280 280 280 278 276 275 275 274 274 273 272 271 270 270 269 268 268 269 269 270 274 272 266 262 267 274 277 279 283 287 290 292 289 288 291 292 293 292 289 290 292 294 294 293 292 292 290 289 288 287 286 286 286 286 285 284
276 276 276 276 277 278 279 279 279 280 281 282 282 282 283 284 284 283 282 282 282 282 280 279 280 278 278 281 283 282 281 280 280 280 279 277 276 275 275 275 275 273 270 270 270 269 268 269 269 267 265 265 268 265 258 263 277 283 287 286 287 289 287 287 289 291 294 293 292 290 289 290 293 294 294 291 288 287 287 288 289 289 290 291 291 290 288 286
276 276 277 277 277 278 278 278 279 279 280 281 282 283 283 283 283 282 281 280 279 279 279 279 277 276 278 281 281 281 280 278 278 277 277 276 274 274 274 274 272 270 268 269 270 270 270 270 266 261 261 265 270 270 270 281 289 290 289 286 285 286 284 285 288 292 297 292 289 288 289 290 293 294 292 289 286 284 285 287 290 292 294 295 294 291 289 287
276 277 277 278 278 279 279 279 279 280 280 281 282 284 284 284 284 283 281 278 277 277 276 277 277 276 277 279 280 280 279 276 274 274 273 272 271 273 272 271 268 266 266 268 270 271 271 268 263 263 269 274 277 279 283 288 288 285 284 282 282 283 283 285 289 295 299 291 287 290 292 291 293 293 290 288 286 282 284 290 292 292 293 294 293 292 292 292
276 277 277 278 279 279 279 280 280 281 281 281 282 283 283 285 286 285 282 278 276 276 276 276 276 275 276 278 279 278 277 273 271 269 269 269 271 271 270 268 266 265 267 269 270 271 269 264 264 270 278 282 282 282 283 282 280 280 280 281 281 280 283 288 291 296 297 290 288 294 295 292 292 291 288 287 286 286 288 290 292 293 294 294 295 296 297 298
273 274 275 276 277 278 279 280 280 281 282 282 283 283 283 284 285 286 285 282 278 276 277 277 276 276 277 278 278 276 273 270 269 268 268 269 267 267 268 268 267 268 269 267 267 268 265 263 268 278 283 283 281 279 277 277 277 278 279 279 278 281 287 291 293 297 297 292 292 298 296 291 291 290 288 288 289 290 290 289 292 296 296 297 298 299 298 298
271 272 272 273 274 276 277 278 279 281 281 282 283 283 283 284 284 285 286 286 284 280 279 279 279 278 279 278 276 273 271 270 269 266 265 264 263 264 265 266 268 269 268 266 267 265 263 266 275 281 281 278 276 275 274 276 277 277 277 276 277 284 289 289 293 299 298 294 295 299 295 291 292 291 289 291 291 292 293 292 295 297 301 306 308 306 303 305
272 273 274 275 276 277 279 280 282 282 283 284 284 284 285 285 286 287 288 289 287 285 284 284 282 281 280 277 272 268 267 267 265 264 262 260 260 261 262 264 266 267 267 268 269 268 267 272 279 278 275 274 273 273 273 276 278 278 276 275 278 286 289 287 293 298 296 294 295 300 298 294 297 296 292 296 297 297 299 298 301 307 312 318 325 333 327 322
273 275 277 280 281 282 282 283 284 286 287 287 287 288 288 289 290 291 294 296 293 293 294 291 285 283 281 274 269 265 264 263 262 262 259 257 257 258 259 261 263 265 267 269 272 272 272 275 277 275 273 273 272 272 273 275 278 277 275 278 284 290 290 290 295 297 296 295 296 305 308 299 299 292 293 300 301 300 303 305 310 317 322 331 11 2 337 330
273 275 276 278 279 282 282 283 286 288 288 289 290 292 291 293 294 296 302 302 298 298 302 298 286 281 280 273 267 262 259 260 261 259 257 256 255 255 256 258 260 264 267 270 272 271 273 275 274 273 273 272 270 271 273 274 273 273 277 286 291 291 290 292 297 294 289 290 292 297 297 293 295 295 297 302 300 300 306 310 316 323 338 107 44 338 332 339
270 271 272 274 276 278 280 282 286 287 287 289 292 293 292 294 296 301 310 309 300 302 311 308 274 267 275 271 263 256 253 260 264 259 257 255 253 253 254 257 260 263 266 268 265 265 272 276 274 274 274 270 266 270 279 278 270 273 284 292 289 289 290 291 293 287 284 288 290 287 273 278 290 294 300 300 298 304 308 313 320 319 144 122 346 333 333 344
263 265 268 272 273 274 278 282 284 283 284 288 291 291 292 294 296 302 312 309 294 306 318 302 268 264 271 267 265 260 257 266 266 258 259 255 252 252 252 255 259 262 265 263 260 264 272 275 276 276 274 272 273 279 286 283 274 278 286 287 283 286 286 284 285 282 286 292 289 280 260 253 281 288 294 295 293 303 315 322 323 173 155 326 331 336 343 343
261 264 268 271 272 275 277 279 279 280 283 286 288 288 289 293 295 297 298 265 278 300 303 284 271 266 265 264 266 266 265 266 261 255 252 244 245 250 252 255 257 259 262 262 264 268 273 276 277 274 272 277 284 286 285 280 277 279 282 281 279 278 277 278 280 280 284 285 271 247 239 236 283 288 293 296 288 302 334 348 151 159 181 323 326 326 323 328
264 267 270 272 275 277 277 276 276 278 281 284 286 286 286 288 289 286 260 251 274 296 295 286 273 261 264 263 261 262 262 259 254 250 246 246 253 258 258 258 259 263 265 266 269 275 278 277 275 273 278 284 286 286 284 279 276 275 275 276 276 274 274 273 271 274 280 272 261 259 259 242 273 293 313 329 277 69 28 143 160 172 299 311 305 307 315 318
267 270 271 273 275 278 278 279 280 281 284 287 290 291 289 287 279 258 224 264 280 290 288 286 276 261 260 259 258 259 258 255 254 254 254 257 259 261 262 264 265 271 273 272 275 280 282 280 280 285 290 289 286 285 283 280 276 273 270 269 272 275 274 267 258 253 237 266 271 275 267 236 234 261 354 62 103 71 0 224 188 232 294 296 278 302 310 312
267 268 269 272 274 277 279 281 281 282 286 289 293 293 290 287 263 238 238 267 290 306 300 313 308 273 258 258 261 264 263 261 262 262 263 264 262 261 262 263 266 273 277 279 285 288 285 285 289 293 290 285 283 280 276 274 271 267 261 254 256 279 285 257 229 211 215 249 267 274 235 227 243 257 266 270 278 286 287 278 260 268 289 291 276 297 307 307
265 266 267 269 272 275 278 280 281 281 284 286 288 287 283 276 253 247 250 257 263 274 294 311 312 292 271 267 266 267 268 266 264 264 266 265 263 263 260 260 265 268 274 283 290 292 291 289 288 288 286 284 279 273 272 274 272 267 260 248 232 216 271 258 245 266 253 249 254 249 227 239 259 268 274 277 285 290 287 287 281 281 291 292 288 298 304 295
264 265 265 267 270 273 277 281 283 283 285 282 280 280 270 252 252 261 264 263 263 269 276 281 283 282 278 275 271 267 268 264 260 263 269 271 273 275 273 272 273 275 280 284 285 286 287 285 284 283 283 283 281 279 279 280 276 272 269 257 239 233 232 241 240 239 265 263 236 212 207 246 266 272 279 284 289 290 290 291 291 292 295 294 295 300 292 259
265 265 265 266 269 274 279 283 284 283 281 277 274 269 257 251 256 265 269 271 272 274 276 277 279 280 279 279 278 275 272 267 262 261 266 272 277 279 278 276 276 279 280 275 275 281 279 278 282 284 284 284 285 284 280 273 267 266 261 246 240 246 247 246 251 256 275 318 239 215 231 262 271 276 280 284 286 288 292 294 294 298 297 296 303 296 237 269
266 264 263 264 267 272 278 280 282 281 278 273 267 260 256 257 261 264 268 274 275 277 281 282 281 281 282 284 283 280 274 271 271 269 272 277 278 276 274 271 270 271 271 270 273 279 277 277 282 285 284 283 281 277 271 259 252 254 247 239 246 254 252 249 256 265 271 284 265 256 261 271 278 284 284 286 290 294 299 299 301 311 302 300 311 295 265 273
266 266 265 264 267 272 276 277 277 276 273 266 256 256 260 262 263 264 266 270 271 273 277 279 278 277 277 278 278 276 272 271 274 274 277 280 278 275 272 267 266 269 273 274 272 270 270 276 282 283 280 277 272 268 261 251 244 240 241 251 258 256 251 246 249 270 257 253 263 260 265 273 278 281 281 286 292 293 293 292 295 303 299 301 306 290 274 262
271 273 272 271 272 274 275 274 272 269 265 257 253 257 261 263 264 265 265 267 269 270 270 269 270 270 269 270 273 274 271 270 270 270 273 272 269 272 273 269 272 276 276 271 266 264 263 268 277 278 274 270 266 259 249 244 240 238 242 251 253 248 246 236 221 240 243 240 257 250 259 267 266 269 278 284 286 285 286 288 293 300 301 301 296 279 264 248
272 273 274 274 275 274 271 268 266 262 254 248 250 257 261 263 265 265 265 265 265 264 264 264 265 267 268 269 272 274 272 270 268 267 267 264 262 269 273 272 276 280 279 273 264 259 255 254 266 268 264 260 255 248 243 240 240 242 245 247 248 252 256 241 229 234 240 246 258 246 249 257 261 269 276 279 280 280 282 285 292 300 305 298 281 264 254 250
271 272 272 272 272 271 269 264 257 251 245 246 253 259 263 265 267 267 266 264 263 261 262 264 265 266 267 270 271 273 271 270 268 264 260 259 262 267 271 273 275 277 278 273 263 257 253 245 251 258 258 258 252 248 254 259 258 255 252 251 253 255 257 256 249 244 247 259 265 253 248 248 257 267 271 271 275 278 280 285 288 294 301 294 275 268 269 271
271 271 271 272 272 271 268 259 251 249 247 249 256 259 261 264 267 268 266 264 263 262 263 265 266 266 268 270 271 271 270 268 268 266 263 264 265 267 268 269 269 270 272 267 259 258 255 247 248 255 259 263 264 265 272 274 273 270 264 261 261 258 255 259 260 250 249 251 251 258 262 250 258 268 271 271 274 277 279 283 285 288 290 285 279 278 279 278
270 270 270 272 271 271 267 258 255 254 250 252 258 260 261 264 266 267 267 266 265 265 266 266 267 267 268 268 269 269 269 268 268 267 267 268 267 267 268 269 269 268 269 267 265 266 266 262 257 260 265 270 274 277 278 275 274 271 266 263 264 260 251 246 247 253 252 251 255 262 266 258 263 270 275 277 280 282 284 286 288 290 288 284 283 283 283 283
269 270 271 270 269 269 264 260 259 255 252 257 263 262 261 263 265 267 268 268 267 267 267 267 267 268 269 269 270 270 269 269 269 268 269 270 271 271 271 271 271 269 269 270 271 272 272 269 262 265 273 277 279 280 276 271 268 262 260 262 260 259 258 254 253 258 260 258 259 262 258 261 269 275 278 281 285 287 289 291 292 290 287 287 287 286 286 287
270 270 270 269 268 262 255 256 259 257 259 264 265 263 262 261 262 264 265 265 266 267 268 269 269 269 269 269 268 267 266 266 267 269 270 270 271 271 270 268 268 270 270 270 274 276 273 269 265 267 281 282 279 278 272 266 263 259 262 266 262 261 262 259 257 260 260 256 255 255 258 264 272 278 280 284 287 288 289 289 287 288 288 288 288 287 288 289
270 269 267 265 264 258 253 257 258 256 257 261 261 263 264 264 264 265 266 266 266 267 268 270 271 271 271 270 268 267 266 265 268 272 272 269 268 268 268 269 270 271 271 271 274 275 271 270 268 262 257 267 269 269 269 271 274 271 272 274 273 273 271 267 264 261 259 260 255 251 262 271 275 280 282 283 283 282 282 280 279 282 285 286 287 289 290 290
270 269 268 267 264 261 262 262 257 253 253 254 254 255 258 260 263 267 268 269 268 268 268 269 271 272 272 271 271 272 273 273 273 272 270 267 268 271 272 274 276 274 272 273 270 265 263 264 263 258 253 257 263 268 272 276 279 279 277 277 278 279 277 275 268 257 260 267 262 259 269 275 276 278 278 275 273 273 274 274 275 277 279 282 285 287 288 289
269 268 268 268 265 263 264 261 255 253 254 253 251 253 256 257 259 262 264 266 267 268 271 271 270 270 270 271 273 274 274 275 273 271 271 273 276 278 278 276 275 273 271 271 269 266 266 266 267 266 264 263 266 270 273 275 277 278 279 277 275 274 273 271 265 261 265 268 265 267 272 274 275 276 274 271 270 270 270 269 271 273 276 279 281 282 284 285
270 268 267 265 264 263 262 260 256 255 256 253 250 253 259 261 261 261 262 264 265 266 270 272 270 269 269 270 272 273 273 273 273 273 275 277 278 278 277 275 273 272 270 270 271 272 272 272 273 273 270 267 267 269 269 271 274 277 280 282 281 278 276 273 270 272 273 272 273 277 278 279 283 284 282 280 278 276 274 273 273 274 276 278 279 280 281 282
271 270 268 266 265 266 265 265 264 263 262 258 254 257 262 263 264 264 261 262 263 262 262 266 267 268 268 270 272 275 276 274 274 275 275 276 277 276 276 275 274 274 273 272 271 268 268 271 269 268 271 271 267 267 271 275 280 285 288 291 291 286 281 278 277 281 283 282 283 287 288 289 288 285 283 283 283 285 284 284 283 283 283 283 283 282 282 282
272 271 270 269 268 269 268 267 266 265 265 262 259 261 263 263 264 266 263 262 264 265 266 268 269 268 270 272 274 273 272 270 271 273 273 273 273 273 274 274 273 271 268 266 264 261 267 272 268 274 288 288 281 281 285 287 290 292 290 289 288 286 282 280 282 285 285 284 285 286 287 285 281 277 278 279 281 283 283 283 284 284 284 283 282 281 280 280
271 270 270 270 269 269 267 266 264 263 264 264 262 263 264 262 263 264 264 263 262 263 263 265 268 269 269 268 267 264 263 262 263 264 265 266 267 267 268 269 270 270 266 266 268 271 278 281 280 286 294 290 286 288 290 291 292 289 285 284 283 282 281 281 284 285 283 281 282 281 278 275 272 273 275 276 276 277 276 276 278 278 277 277 275 275 275 275
269 269 269 269 268 267 266 266 265 263 264 265 264 262 262 263 263 262 263 265 263 261 260 258 259 262 263 263 263 264 267 270 271 270 268 269 270 272 272 273 274 275 275 276 279 282 285 285 284 286 284 281 286 289 289 293 295 284 281 283 282 281 280 280 281 280 277 276 277 276 274 273 273 275 276 276 275 273 272 272 272 271 271 272 272 274 276 277
Height
3183 3183 3183 3183 3183 3183 3183 3182 3182 3182 3181 3181 3181 3181 3181 3181 3180 3180 3180 3180 3180 3179 3179 3179 3178 3178 3178 3177 3177 3177 3177 3177 3177 3177 3177 3176 3175 3175 3175 3175 3174 3174 3174 3173 3173 3172 3173 3173 3172 3172 3172 3171 3171 3171 3170 3170 3169 3168 3167 3167 3166 3166 3166 3166 3166 3164 3163 3163 3163 3163 3162 3160 3160 3160 3158 3156 3156 3157 3157 3157 3157 3155 3155 3155 3154 3153 3153 3152
3182 3182 3182 3182 3182 3182 3182 3181 3181 3181 3180 3180 3180 3180 3180 3179 3179 3179 3179 3179 3178 3178 3178 3178 3178 3177 3177 3177 3176 3176 3176 3176 3176 3176 3175 3175 3174 3174 3174 3174 3173 3173 3172 3172 3172 3171 3171 3171 3171 3171 3171 3170 3170 3169 3169 3169 3168 3167 3166 3165 3165 3166 3165 3165 3165 3164 3162 3161 3161 3161 3161 3159 3158 3158 3156 3154 3154 3155 3154 3155 3156 3154 3154 3153 3152 3151 3150 3150
3181 3181 3181 3181 3181 3181 3180 3180 3180 3179 3179 3179 3179 3179 3178 3178 3178 3178 3177 3177 3177 3177 3177 3176 3176 3176 3176 3176 3175 3175 3174 3175 3175 3174 3174 3173 3173 3173 3173 3172 3172 3171 3171 3170 3170 3170 3170 3170 3169 3169 3169 3169 3168 3168 3168 3167 3167 3165 3164 3163 3164 3164 3163 3163 3164 3163 3161 3160 3159 3159 3158 3157 3157 3156 3154 3152 3152 3152 3153 3154 3153 3152 3152 3152 3149 3148 3147 3148
3180 3180 3180 3179 3179 3179 3179 3179 3178 3178 3178 3177 3177 3177 3177 3177 3177 3176 3176 3176 3176 3175 3175 3175 3175 3175 3175 3174 3174 3173 3173 3173 3173 3173 3172 3172 3172 3171 3171 3171 3170 3170 3169 3169 3168 3168 3168 3168 3168 3167 3167 3167 3167 3166 3166 3166 3165 3163 3162 3161 3162 3162 3161 3161 3163 3161 3160 3158 3157 3157 3156 3155 3156 3154 3152 3151 3149 3149 3152 3153 3151 3150 3150 3149 3147 3146 3145 3145
3178 3178 3178 3178 3178 3178 3177 3177 3177 3177 3176 3176 3176 3175 3175 3175 3175 3175 3174 3174 3174 3174 3173 3173 3173 3173 3173 3172 3172 3172 3171 3171 3171 3171 3171 3171 3170 3170 3170 3169 3169 3168 3168 3167 3167 3167 3166 3166 3166 3166 3165 3165 3164 3164 3164 3164 3163 3160 3159 3160 3161 3160 3158 3159 3161 3159 3158 3157 3155 3155 3154 3153 3153 3151 3150 3149 3147 3148 3151 3151 3150 3148 3147 3146 3145 3144 3143 3143
3176 3176 3176 3176 3176 3176 3176 3176 3175 3175 3175 3174 3174 3174 3173 3173 3173 3173 3173 3173 3172 3172 3172 3171 3171 3171 3171 3170 3170 3170 3169 3170 3171 3170 3170 3170 3169 3169 3168 3168 3167 3167 3166 3166 3165 3165 3164 3164 3163 3164 3163 3162 3162 3162 3162 3161 3161 3158 3156 3158 3159 3158 3156 3157 3158 3156 3156 3155 3154 3153 3152 3151 3150 3148 3147 3145 3145 3147 3149 3149 3148 3147 3145 3144 3143 3142 3141 3141
3174 3174 3174 3174 3174 3174 3174 3174 3174 3173 3173 3173 3172 3172 3172 3171 3171 3171 3171 3171 3170 3170 3170 3170 3169 3169 3169 3168 3168 3167 3166 3169 3170 3168 3167 3168 3167 3167 3167 3166 3166 3165 3164 3164 3163 3163 3162 3162 3162 3162 3161 3160 3159 3159 3159 3158 3158 3156 3154 3156 3156 3155 3154 3155 3154 3153 3153 3152 3152 3151 3150 3149 3148 3145 3142 3139 3143 3147 3147 3146 3145 3144 3143 3142 3141 3141 3140 3139
3173 3172 3172 3172 3172 3172 3172 3172 3172 3171 3171 3171 3170 3170 3170 3169 3169 3169 3169 3169 3169 3168 3168 3168 3167 3167 3167 3166 3166 3164 3164 3167 3168 3166 3165 3165 3165 3165 3165 3164 3164 3163 3162 3162 3161 3161 3160 3160 3160 3159 3158 3158 3157 3156 3156 3155 3155 3153 3152 3153 3152 3151 3151 3152 3151 3150 3150 3149 3149 3148 3147 3147 3146 3143 3135 3133 3141 3145 3145 3144 3142 3142 3141 3140 3139 3139 3138 3137
3170 3170 3170 3170 3170 3170 3170 3170 3170 3169 3169 3169 3168 3168 3168 3167 3167 3167 3167 3167 3167 3166 3166 3165 3165 3165 3164 3164 3163 3160 3162 3166 3166 3164 3163 3162 3163 3163 3163 3162 3161 3161 3160 3159 3159 3158 3158 3158 3158 3157 3156 3155 3154 3153 3153 3152 3151 3150 3150 3150 3149 3148 3148 3148 3147 3147 3147 3146 3146 3143 3144 3145 3144 3140 3129 3129 3140 3142 3142 3141 3140 3139 3138 3137 3137 3136 3135 3134
3168 3168 3167 3167 3167 3168 3167 3167 3167 3167 3167 3166 3166 3166 3165 3165 3164 3164 3164 3164 3164 3163 3163 3163 3162 3162 3161 3162 3160 3157 3161 3164 3163 3162 3161 3161 3161 3161 3161 3160 3159 3159 3158 3157 3157 3156 3156 3155 3155 3154 3154 3153 3153 3151 3151 3150 3148 3148 3147 3146 3146 3145 3145 3145 3143 3144 3144 3143 3143 3139 3140 3141 3141 3137 3125 3127 3139 3139 3137 3137 3136 3136 3135 3135 3134 3133 3133 3131
3165 3165 3165 3165 3165 3165 3165 3164 3164 3164 3164 3164 3163 3163 3162 3162 3162 3162 3162 3161 3161 3161 3160 3160 3160 3159 3159 3159 3156 3155 3160 3161 3159 3160 3159 3159 3159 3158 3158 3157 3156 3156 3155 3155 3154 3154 3153 3153 3152 3152 3152 3151 3151 3149 3148 3147 3146 3145 3144 3143 3144 3143 3142 3141 3140 3141 3141 3139 3139 3136 3135 3137 3137 3132 3125 3129 3136 3134 3133 3133 3133 3132 3131 3131 3130 3129 3129 3128
3162 3162 3162 3162 3162 3162 3162 3162 3162 3162 3162 3161 3161 3160 3160 3159 3159 3159 3159 3159 3158 3158 3158 3157 3157 3157 3156 3155 3153 3154 3157 3157 3157 3157 3156 3157 3157 3156 3155 3154 3154 3153 3153 3152 3152 3151 3151 3150 3150 3150 3150 3148 3148 3147 3146 3145 3143 3142 3141 3139 3140 3139 3138 3139 3138 3138 3138 3136 3135 3133 3128 3130 3132 3128 3126 3130 3131 3130 3129 3128 3128 3128 3128 3128 3127 3126 3125 3125
3160 3160 3159 3160 3159 3159 3159 3159 3159 3159 3159 3158 3158 3158 3157 3157 3156 3156 3156 3156 3155 3155 3155 3154 3154 3154 3152 3151 3152 3153 3154 3153 3154 3154 3154 3155 3153 3152 3152 3151 3151 3150 3149 3149 3149 3148 3148 3147 3146 3147 3147 3146 3146 3145 3143 3142 3141 3140 3138 3136 3135 3134 3133 3136 3137 3135 3135 3132 3131 3130 3122 3121 3128 3127 3126 3128 3127 3126 3124 3124 3124 3123 3123 3123 3123 3122 3121 3121
3157 3157 3157 3157 3156 3156 3156 3156 3156 3156 3156 3155 3155 3154 3154 3154 3153 3153 3153 3152 3152 3151 3151 3151 3150 3150 3148 3148 3150 3150 3150 3151 3151 3151 3151 3151 3150 3149 3149 3148 3147 3147 3146 3146 3145 3145 3144 3144 3143 3143 3144 3144 3144 3143 3140 3139 3138 3138 3135 3133 3132 3130 3129 3134 3135 3132 3130 3128 3127 3126 3117 3114 3122 3124 3124 3124 3122 3121 3119 3119 3120 3118 3118 3117 3118 3117 3116 3117
3154 3154 3154 3153 3153 3153 3153 3153 3153 3152 3152 3151 3151 3151 3150 3150 3149 3149 3149 3148 3148 3147 3147 3147 3147 3146 3143 3145 3148 3146 3147 3148 3148 3148 3147 3147 3147 3146 3146 3145 3144 3143 3143 3142 3142 3141 3141 3140 3139 3140 3141 3142 3142 3140 3137 3135 3136 3136 3132 3130 3130 3127 3126 3131 3133 3130 3127 3124 3123 3121 3112 3109 3115 3119 3121 3121 3116 3115 3114 3113 3114 3113 3112 3112 3111 3112 3111 3112
3151 3151 3151 3151 3150 3150 3150 3150 3150 3149 3149 3148 3148 3147 3147 3147 3146 3146 3145 3145 3144 3144 3144 3143 3143 3142 3139 3141 3144 3144 3144 3145 3144 3144 3144 3144 3143 3142 3142 3141 3140 3140 3139 3139 3138 3138 3137 3136 3136 3137 3138 3140 3140 3137 3133 3131 3132 3133 3129 3126 3127 3126 3124 3125 3129 3129 3124 3120 3119 3117 3109 3105 3109 3113 3117 3117 3113 3110 3108 3108 3109 3108 3107 3107 3106 3106 3106 3107
3148 3148 3148 3148 3147 3147 3147 3147 3146 3146 3146 3145 3145 3144 3144 3143 3143 3143 3142 3142 3141 3140 3140 3139 3139 3138 3136 3138 3140 3141 3141 3140 3140 3140 3140 3140 3139 3139 3138 3137 3137 3137 3136 3135 3135 3134 3133 3132 3132 3134 3135 3137 3137 3134 3130 3128 3128 3129 3128 3124 3123 3124 3123 3121 3122 3125 3123 3116 3113 3112 3105 3101 3104 3109 3111 3113 3112 3107 3103 3103 3103 3103 3102 3102 3102 3101 3101 3101
3145 3145 3145 3145 3144 3144 3144 3144 3143 3143 3143 3142 3141 3141 3141 3140 3140 3139 3139 3139 3138 3137 3136 3135 3136 3133 3132 3135 3136 3137 3137 3136 3136 3136 3136 3137 3136 3135 3134 3133 3133 3133 3132 3132 3131 3131 3130 3129 3129 3130 3131 3133 3133 3130 3125 3124 3125 3127 3126 3123 3120 3121 3120 3118 3118 3121 3121 3113 3108 3107 3100 3096 3099 3103 3105 3107 3108 3104 3099 3099 3098 3098 3098 3098 3097 3096 3096 3095
3142 3142 3142 3142 3141 3141 3141 3141 3140 3140 3140 3139 3138 3138 3137 3137 3136 3136 3136 3135 3134 3134 3132 3131 3132 3130 3129 3132 3133 3133 3134 3134 3133 3133 3133 3133 3132 3130 3130 3130 3129 3129 3128 3128 3127 3127 3127 3125 3124 3125 3127 3129 3128 3125 3122 3123 3124 3123 3123 3121 3118 3116 3115 3115 3115 3116 3117 3108 3102 3103 3095 3092 3095 3097 3098 3100 3103 3101 3097 3096 3095 3094 3094 3093 3092 3090 3090 3089
3139 3139 3139 3139 3139 3139 3138 3138 3137 3137 3137 3137 3135 3135 3134 3133 3132 3131 3131 3130 3130 3130 3129 3128 3127 3126 3126 3128 3130 3129 3130 3130 3129 3130 3129 3129 3128 3127 3126 3125 3124 3124 3123 3124 3124 3123 3124 3120 3117 3119 3122 3124 3124 3123 3121 3121 3122 3120 3118 3117 3115 3113 3109 3111 3112 3113 3115 3102 3093 3097 3092 3086 3090 3090 3092 3094 3094 3095 3095 3094 3092 3091 3090 3088 3087 3086 3085 3085
3136 3136 3136 3136 3136 3136 3135 3135 3134 3134 3134 3134 3133 3132 3131 3130 3128 3126 3124 3124 3126 3126 3124 3124 3123 3120 3122 3125 3125 3126 3125 3125 3126 3126 3125 3125 3124 3123 3121 3120 3119 3119 3120 3122 3120 3120 3118 3111 3111 3117 3120 3121 3121 3121 3119 3118 3118 3116 3115 3113 3111 3110 3105 3106 3110 3110 3112 3099 3087 3091 3086 3078 3084 3085 3086 3089 3087 3088 3091 3091 3087 3086 3086 3085 3083 3082 3081 3081
3133 3133 3133 3133 3133 3133 3132 3132 3132 3131 3131 3131 3131 3130 3129 3127 3125 3123 3118 3115 3118 3121 3119 3119 3118 3115 3118 3122 3121 3121 3119 3119 3121 3121 3122 3122 3120 3119 3117 3115 3114 3114 3116 3118 3117 3115 3110 3105 3110 3117 3118 3118 3117 3116 3116 3114 3114 3113 3112 3110 3105 3106 3104 3101 3105 3107 3106 3098 3086 3087 3078 3067 3076 3079 3080 3083 3081 3082 3086 3085 3084 3081 3081 3081 3079 3079 3077 3077
3130 3129 3130 3130 3130 3130 3129 3129 3129 3129 3129 3128 3128 3127 3126 3124 3123 3121 3116 3109 3108 3114 3116 3115 3113 3110 3113 3117 3116 3116 3113 3112 3115 3116 3118 3117 3115 3116 3113 3110 3110 3110 3111 3112 3112 3110 3103 3102 3111 3116 3114 3114 3112 3112 3112 3111 3110 3109 3108 3107 3101 3104 3104 3096 3099 3103 3102 3095 3087 3084 3070 3056 3066 3072 3072 3078 3076 3078 3081 3079 3080 3079 3077 3076 3075 3074 3074 3074
3126 3127 3127 3127 3128 3127 3127 3127 3126 3126 3126 3126 3125 3125 3123 3122 3120 3118 3114 3107 3100 3103 3110 3111 3108 3106 3108 3110 3110 3110 3107 3107 3109 3110 3113 3112 3111 3112 3108 3107 3107 3105 3106 3108 3108 3103 3098 3103 3110 3111 3110 3109 3108 3108 3109 3108 3106 3103 3103 3103 3099 3101 3103 3096 3096 3098 3095 3093 3088 3083 3065 3046 3055 3063 3063 3071 3071 3071 3074 3073 3074 3074 3073 3072 3071 3071 3072 3072
3124 3124 3124 3124 3125 3124 3125 3124 3123 3124 3123 3123 3123 3122 3121 3119 3119 3115 3112 3105 3094 3093 3102 3104 3102 3100 3102 3103 3103 3104 3102 3101 3103 3105 3106 3106 3107 3107 3104 3104 3102 3100 3102 3105 3105 3097 3095 3103 3107 3105 3104 3105 3104 3103 3106 3106 3101 3096 3096 3099 3098 3098 3099 3096 3097 3094 3089 3088 3087 3087 3072 3044 3044 3056 3057 3061 3064 3064 3067 3068 3068 3069 3068 3068 3069 3069 3070 3071
3120 3121 3121 3121 3122 3122 3122 3121 3122 3121 3120 3121 3120 3119 3119 3117 3116 3114 3111 3104 3091 3089 3094 3096 3096 3096 3096 3097 3098 3099 3097 3096 3098 3100 3100 3101 3102 3102 3100 3099 3098 3098 3099 3101 3100 3092 3091 3100 3102 3100 3100 3100 3100 3099 3102 3104 3097 3091 3092 3097 3097 3096 3095 3094 3095 3093 3087 3084 3083 3088 3086 3058 3036 3044 3052 3054 3057 3058 3061 3063 3063 3064 3065 3065 3067 3068 3069 3069
3117 3118 3117 3118 3118 3119 3119 3119 3120 3118 3118 3118 3118 3117 3117 3116 3115 3113 3111 3105 3091 3087 3091 3091 3091 3092 3093 3095 3095 3095 3094 3093 3095 3095 3095 3097 3097 3097 3096 3095 3095 3096 3097 3098 3095 3088 3089 3096 3097 3097 3096 3096 3096 3096 3098 3100 3096 3090 3090 3095 3094 3093 3093 3091 3092 3091 3085 3082 3080 3080 3089 3076 3042 3033 3045 3049 3050 3054 3056 3058 3059 3061 3062 3063 3065 3066 3066 3067
3114 3114 3114 3114 3114 3115 3116 3117 3117 3116 3115 3115 3115 3115 3114 3114 3115 3113 3115 3109 3092 3085 3090 3090 3090 3091 3092 3093 3093 3093 3093 3092 3093 3093 3093 3094 3093 3093 3093 3092 3093 3093 3094 3094 3088 3085 3089 3092 3093 3094 3093 3092 3092 3094 3096 3097 3095 3090 3089 3091 3091 3091 3090 3089 3088 3087 3085 3081 3076 3073 3083 3084 3052 3031 3041 3045 3046 3051 3052 3054 3056 3057 3059 3060 3062 3063 3064 3065
3110 3110 3111 3111 3110 3112 3114 3115 3115 3113 3113 3113 3113 3113 3112 3113 3113 3112 3116 3108 3089 3084 3089 3089 3090 3091 3091 3092 3091 3091 3091 3091 3091 3090 3091 3092 3090 3090 3090 3090 3092 3090 3090 3089 3084 3085 3089 3089 3090 3090 3090 3090 3090 3092 3092 3093 3092 3089 3089 3088 3088 3089 3086 3087 3085 3083 3086 3079 3070 3071 3078 3081 3055 3030 3038 3043 3042 3048 3048 3050 3053 3053 3056 3058 3059 3061 3061 3062
3106 3106 3107 3107 3107 3109 3110 3112 3112 3111 3110 3111 3110 3110 3111 3111 3111 3112 3111 3097 3085 3087 3088 3087 3088 3089 3089 3090 3090 3089 3089 3089 3088 3089 3089 3089 3088 3088 3088 3089 3090 3088 3087 3086 3082 3084 3086 3085 3085 3085 3087 3088 3088 3089 3088 3089 3089 3088 3088 3085 3085 3085 3082 3085 3082 3081 3085 3073 3064 3067 3072 3079 3060 3031 3034 3041 3040 3045 3046 3049 3051 3050 3053 3056 3057 3058 3058 3059
3103 3103 3103 3103 3104 3105 3106 3108 3110 3108 3108 3108 3108 3108 3108 3108 3109 3108 3098 3086 3085 3088 3087 3086 3087 3087 3087 3087 3087 3087 3087 3086 3087 3087 3087 3087 3086 3086 3087 3088 3088 3086 3084 3083 3081 3082 3082 3081 3081 3082 3084 3085 3085 3086 3085 3085 3085 3085 3086 3084 3083 3082 3080 3080 3079 3081 3082 3068 3061 3064 3067 3073 3056 3030 3034 3040 3040 3044 3046 3050 3051 3049 3051 3054 3055 3056 3056 3056
3100 3100 3100 3100 3100 3101 3103 3105 3106 3107 3106 3106 3106 3105 3105 3106 3103 3094 3086 3085 3089 3087 3085 3086 3085 3085 3086 3085 3085 3086 3085 3085 3085 3086 3085 3084 3084 3084 3085 3085 3085 3085 3082 3080 3079 3078 3076 3076 3077 3078 3079 3082 3083 3083 3082 3081 3081 3081 3082 3083 3083 3082 3079 3077 3076 3078 3075 3064 3059 3061 3065 3062 3040 3027 3036 3040 3039 3044 3045 3049 3050 3048 3050 3052 3052 3053 3053 3053
3097 3097 3097 3097 3097 3098 3099 3100 3102 3104 3103 3104 3104 3102 3103 3102 3092 3082 3083 3089 3089 3085 3085 3086 3085 3085 3085 3084 3085 3084 3084 3084 3084 3084 3083 3082 3081 3081 3082 3082 3083 3082 3079 3078 3077 3074 3071 3070 3073 3075 3075 3077 3079 3079 3078 3077 3077 3077 3076 3078 3080 3080 3078 3076 3075 3073 3067 3059 3057 3060 3062 3051 3030 3027 3035 3035 3038 3041 3042 3045 3046 3046 3047 3048 3049 3049 3049 3050
3093 3094 3094 3094 3094 3094 3095 3097 3098 3099 3100 3101 3100 3100 3100 3093 3082 3079 3083 3085 3085 3085 3085 3085 3084 3085 3083 3083 3083 3083 3083 3082 3081 3082 3080 3080 3080 3078 3079 3080 3080 3079 3078 3077 3075 3072 3071 3066 3067 3072 3073 3073 3074 3075 3076 3074 3074 3073 3072 3073 3072 3071 3071 3070 3068 3064 3058 3056 3057 3058 3055 3041 3027 3028 3031 3033 3036 3038 3038 3041 3041 3041 3043 3043 3044 3045 3045 3046
3089 3090 3090 3090 3090 3091 3092 3093 3094 3095 3096 3097 3097 3097 3091 3081 3077 3080 3080 3080 3082 3083 3083 3083 3083 3081 3079 3080 3080 3081 3081 3078 3078 3079 3077 3077 3077 3076 3077 3078 3077 3077 3077 3076 3073 3071 3070 3064 3063 3068 3069 3070 3071 3071 3072 3072 3070 3068 3069 3069 3065 3063 3064 3063 3060 3057 3056 3056 3054 3051 3044 3032 3026 3026 3028 3032 3033 3034 3036 3036 3036 3037 3038 3039 3041 3042 3043 3043
3085 3085 3085 3085 3086 3087 3088 3088 3089 3090 3091 3093 3094 3089 3080 3075 3077 3079 3078 3078 3080 3080 3080 3081 3080 3078 3076 3075 3076 3077 3077 3075 3076 3076 3074 3073 3074 3073 3074 3075 3075 3076 3075 3074 3072 3071 3067 3061 3061 3064 3064 3066 3066 3067 3068 3067 3065 3064 3063 3061 3060 3060 3061 3060 3057 3055 3057 3054 3047 3043 3036 3030 3028 3023 3022 3028 3029 3031 3033 3032 3033 3035 3036 3038 3039 3040 3040 3039
3079 3079 3080 3081 3082 3083 3083 3083 3084 3085 3086 3088 3086 3078 3071 3072 3075 3075 3076 3077 3076 3077 3079 3077 3076 3075 3074 3072 3072 3073 3074 3073 3074 3073 3072 3072 3070 3069 3070 3071 3072 3072 3073 3072 3069 3069 3066 3059 3057 3059 3059 3060 3061 3061 3062 3061 3060 3059 3058 3057 3057 3058 3057 3057 3056 3054 3056 3051 3042 3038 3033 3030 3032 3021 3016 3025 3028 3027 3030 3030 3031 3033 3034 3036 3036 3037 3036 3034
3073 3074 3074 3075 3077 3077 3077 3078 3078 3079 3080 3080 3076 3070 3067 3068 3069 3071 3073 3074 3073 3074 3075 3073 3072 3071 3071 3069 3068 3069 3071 3070 3070 3070 3070 3069 3067 3065 3066 3068 3068 3067 3069 3070 3066 3065 3064 3057 3054 3054 3053 3053 3055 3055 3055 3055 3055 3055 3055 3055 3055 3054 3052 3053 3053 3051 3052 3047 3039 3035 3031 3029 3029 3019 3015 3023 3025 3024 3026 3027 3028 3029 3031 3032 3031 3031 3031 3029
3069 3069 3068 3069 3071 3071 3072 3072 3072 3074 3074 3072 3067 3064 3062 3063 3064 3067 3068 3069 3070 3070 3069 3068 3068 3067 3067 3066 3065 3066 3066 3065 3065 3066 3065 3064 3062 3061 3062 3064 3064 3063 3064 3065 3063 3061 3061 3056 3052 3050 3048 3049 3049 3049 3049 3050 3053 3053 3053 3053 3052 3051 3050 3049 3048 3045 3045 3041 3035 3033 3029 3024 3023 3019 3018 3021 3021 3022 3023 3023 3025 3025 3026 3027 3027 3027 3026 3025
3063 3063 3063 3064 3065 3066 3067 3067 3067 3067 3065 3062 3061 3059 3058 3059 3061 3063 3064 3065 3066 3066 3064 3064 3065 3064 3062 3062 3062 3062 3062 3061 3061 3061 3060 3059 3058 3057 3059 3059 3060 3060 3060 3060 3059 3057 3056 3053 3049 3047 3046 3045 3045 3045 3046 3048 3050 3050 3050 3050 3049 3049 3048 3045 3043 3041 3040 3036 3032 3029 3023 3018 3020 3020 3018 3017 3017 3019 3021 3020 3021 3022 3023 3024 3024 3023 3021 3019
3058 3057 3057 3059 3059 3060 3061 3061 3060 3059 3057 3056 3056 3055 3055 3057 3057 3057 3058 3059 3060 3060 3061 3060 3061 3060 3059 3059 3059 3059 3058 3057 3056 3056 3054 3054 3054 3053 3055 3056 3056 3056 3056 3055 3055 3054 3052 3048 3045 3045 3043 3040 3040 3043 3045 3045 3045 3045 3045 3045 3045 3045 3045 3043 3039 3036 3036 3032 3028 3025 3017 3013 3018 3019 3015 3014 3015 3017 3019 3018 3018 3020 3021 3021 3020 3017 3015 3015
3052 3052 3053 3054 3054 3055 3056 3054 3054 3054 3052 3051 3051 3051 3052 3053 3053 3053 3054 3054 3055 3056 3056 3056 3055 3055 3055 3055 3054 3055 3054 3052 3051 3051 3048 3048 3049 3050 3051 3053 3053 3053 3052 3050 3050 3050 3048 3044 3041 3040 3038 3036 3037 3040 3041 3040 3039 3039 3039 3039 3040 3040 3040 3038 3033 3030 3031 3027 3025 3023 3013 3007 3013 3016 3013 3013 3014 3015 3015 3016 3016 3015 3013 3012 3012 3012 3011 3010
3047 3048 3049 3050 3050 3051 3051 3049 3049 3048 3046 3046 3048 3049 3050 3050 3049 3049 3049 3050 3050 3051 3051 3050 3050 3050 3050 3050 3050 3050 3050 3046 3044 3045 3044 3043 3044 3044 3046 3048 3047 3048 3047 3045 3044 3045 3043 3040 3038 3035 3033 3032 3033 3035 3035 3034 3034 3033 3033 3035 3035 3032 3032 3031 3028 3027 3025 3022 3022 3019 3007 3001 3008 3012 3012 3012 3013 3012 3014 3015 3011 3005 3003 3004 3005 3004 3003 3001
3043 3044 3045 3045 3046 3047 3046 3044 3043 3043 3042 3044 3044 3044 3045 3046 3045 3045 3045 3045 3046 3047 3046 3045 3046 3046 3045 3046 3046 3044 3044 3041 3038 3039 3040 3039 3039 3039 3041 3042 3041 3042 3042 3040 3039 3040 3039 3038 3036 3034 3032 3029 3028 3029 3028 3028 3029 3027 3027 3029 3028 3028 3029 3026 3025 3025 3019 3016 3018 3012 2999 2999 3006 3008 3009 3011 3010 3010 3013 3012 3003 2996 2996 2997 2995 2994 2995 2994
3039 3040 3041 3041 3041 3041 3040 3040 3040 3040 3040 3041 3040 3040 3042 3041 3040 3041 3042 3041 3042 3043 3042 3041 3042 3042 3040 3041 3040 3038 3039 3038 3035 3035 3036 3035 3035 3035 3035 3036 3037 3037 3037 3036 3037 3036 3034 3033 3034 3033 3031 3028 3025 3024 3024 3024 3024 3023 3023 3025 3024 3025 3025 3023 3022 3020 3013 3010 3011 3005 2996 2998 3005 3007 3007 3008 3006 3005 3006 3004 2997 2992 2990 2989 2987 2986 2987 2987
3035 3035 3036 3037 3037 3036 3036 3036 3037 3036 3037 3037 3036 3037 3038 3036 3036 3037 3037 3037 3037 3038 3038 3037 3037 3038 3036 3036 3035 3033 3034 3035 3033 3032 3031 3031 3031 3031 3030 3031 3032 3032 3032 3032 3032 3031 3028 3026 3028 3027 3025 3024 3021 3019 3021 3022 3019 3018 3019 3020 3020 3021 3020 3020 3017 3011 3008 3005 3001 3000 2998 2996 3000 3005 3002 3000 2999 2998 2998 2996 2992 2989 2987 2985 2984 2982 2980 2980
3031 3031 3032 3032 3032 3032 3031 3032 3032 3032 3032 3033 3032 3032 3032 3032 3032 3033 3033 3033 3033 3034 3034 3032 3033 3033 3032 3031 3031 3029 3029 3030 3030 3028 3027 3027 3027 3027 3027 3027 3027 3028 3028 3028 3027 3026 3023 3021 3022 3022 3020 3020 3019 3017 3018 3017 3013 3013 3014 3013 3015 3015 3014 3014 3008 3004 3006 3001 2992 2996 3000 2994 2994 2999 2995 2991 2993 2993 2991 2990 2988 2986 2984 2982 2981 2978 2976 2975
3027 3027 3028 3028 3027 3028 3027 3028 3028 3028 3028 3029 3028 3027 3027 3027 3027 3028 3029 3029 3029 3030 3030 3027 3027 3028 3028 3028 3028 3025 3025 3025 3024 3024 3023 3022 3022 3022 3022 3022 3022 3022 3024 3023 3022 3023 3020 3016 3017 3018 3015 3015 3015 3013 3013 3012 3008 3008 3009 3008 3008 3008 3007 3005 3001 3000 3003 2997 2989 2993 2996 2991 2990 2992 2989 2987 2988 2986 2985 2985 2984 2983 2982 2979 2977 2974 2972 2970
3022 3022 3023 3023 3023 3023 3023 3024 3024 3024 3025 3025 3023 3022 3023 3023 3023 3024 3025 3025 3024 3025 3026 3023 3023 3024 3023 3024 3023 3021 3021 3021 3019 3019 3019 3018 3017 3017 3017 3017 3017 3017 3018 3018 3018 3019 3016 3012 3012 3012 3008 3008 3010 3009 3009 3008 3005 3003 3003 3004 3004 3002 3000 2997 2995 2996 2997 2992 2989 2991 2990 2988 2987 2986 2985 2984 2981 2980 2979 2978 2978 2978 2977 2975 2973 2970 2968 2965
3017 3017 3018 3018 3018 3019 3019 3019 3020 3019 3020 3021 3019 3018 3020 3019 3019 3020 3021 3020 3019 3020 3021 3019 3018 3018 3018 3018 3018 3016 3016 3016 3015 3014 3014 3014 3013 3013 3013 3013 3013 3013 3014 3014 3014 3015 3013 3009 3009 3007 3003 3002 3004 3005 3004 3004 3002 3000 2998 2998 2998 2996 2993 2991 2991 2991 2989 2985 2985 2986 2985 2984 2982 2979 2980 2979 2976 2976 2974 2972 2972 2971 2969 2968 2966 2965 2963 2961
3012 3012 3013 3013 3013 3015 3014 3014 3016 3015 3014 3016 3014 3014 3016 3015 3015 3015 3015 3016 3016 3016 3017 3016 3013 3013 3013 3013 3013 3011 3011 3011 3010 3010 3010 3010 3010 3010 3009 3009 3009 3009 3009 3010 3010 3009 3008 3005 3005 3006 3001 2997 2999 2999 2998 2998 2997 2995 2993 2992 2990 2988 2986 2986 2985 2985 2982 2979 2979 2979 2978 2978 2977 2975 2974 2973 2971 2971 2969 2967 2967 2965 2963 2961 2960 2959 2958 2956
3008 3007 3008 3008 3008 3009 3009 3009 3011 3010 3010 3011 3011 3010 3011 3011 3011 3011 3010 3011 3011 3011 3012 3012 3010 3009 3009 3009 3008 3007 3007 3007 3006 3006 3006 3005 3005 3005 3004 3004 3005 3004 3004 3005 3004 3003 3004 3002 3002 3003 2998 2993 2994 2995 2993 2994 2992 2987 2984 2984 2983 2982 2981 2979 2979 2978 2976 2974 2973 2972 2971 2971 2971 2970 2969 2967 2966 2966 2964 2962 2961 2960 2958 2957 2955 2955 2953 2951